User: anonymous   Login
Location: Cactus School
(34.5700°N, 118.0931°W)
Time: 07:49:36
(UTC-08:00)
Language:

Explorer 7 - Orbit

View from above orbital plane
View from above orbital plane
View from above satellite
View from above satellite

Ground track
Ground track

The orbit data is extracted from the following two-line orbital elements,

1    22U 59009A   19321.21684743  .00000112  00000-0  31601-4 0  9997
2    22  50.2855  22.4541 0140094 164.1834 196.3555 14.94989491193425
Epoch (UTC): 17 November 2019 05:12:15
Eccentricity: 0.0140094
inclination: 50.2855°
perigee height: 485 km
apogee height: 680 km
right ascension of ascending node: 22.4541°
argument of perigee: 164.1834°
revolutions per day: 14.94989491
mean anomaly at epoch: 196.3555°
orbit number at epoch: 19342

The dashed part of the orbit path shows where the satellite is in the earth's shadow,  

DLR